Regional Weather Roundup
Issued by NWS

Home | Current Version | Previous Version | Graphics & Text | Print | Product List | Glossary On
Versions: 1 2 3 4 5 6 7 8 9 10 11 12 13 14 15 16 17 18 19 20 21 22 23 24 25 26 27 28 29 30 31 32 33 34 35 36 37 38 39 40 41 42 43 44 45 46 47 48 49 50
000
ASUS43 KIND 272000
RWRIN

WEATHER ROUNDUP FOR INDIANA
NATIONAL WEATHER SERVICE INDIANAPOLIS IN
400 PM EDT THU JUL 27 2017

NOTE: "FAIR" INDICATES FEW OR NO CLOUDS BELOW 12,000 FEET WITH NO
SIGNIFICANT WEATHER AND/OR OBSTRUCTIONS TO VISIBILITY.

* - STATION DOES NOT REPORT WEATHER SUCH AS PRECIPITATION OR FOG.

+ - STATION NOT QUALITY CONTROLLED BY THE NATIONAL WEATHER SERVICE.
    USE DATA WITH CAUTION...ESPECIALLY DEWPOINT AND RELATIVE
    HUMIDITY OBSERVATIONS.

INZ001>003-010>013-019-020-272100-
NORTHWEST INDIANA

CITY           SKY/WX    TMP DP  RH WIND       PRES   REMARKS
GARY /AIRPORT/ CLOUDY    75  70  83 N14       29.94S
MICHIGAN CITY+ CLOUDY    77  72  83 N12       29.93S
MONTICELLO +   CLOUDY    81  74  81 N8        29.89F
RENSSELAER +   PTSUNNY   81  72  74 N5        29.91S

$$

LMZ046-743>745-272100-
SOUTHERN LAKE MICHIGAN

STATION/POSITION TIME  TEMP    WIND        PRES    WAVE
                       AIR SEA DIR/SP/G            HT
                 (UTC) (F)     (DEG/KT/KT) (MB)    (FT)
BURNS HARBOR     1940   73      10/ 12/ 15 1013.9S
MICHIGAN CITY    1930   73     360/ 13/ 16   N/A
5NW MICH CITY    1950   73 75   10/ 14/ 17   N/A     3

$$

INZ004-005-014>016-021>024-272100-
NORTH CENTRAL INDIANA

CITY           SKY/WX    TMP DP  RH WIND       PRES   REMARKS
ELKHART        MOSUNNY   84  66  54 CALM      29.89F
GOSHEN         MOSUNNY   84  69  60 VRB5      29.89F
SOUTH BEND     CLOUDY    83  72  69 NW8       29.90S

$$

INZ006>009-017-018-025>027-272100-
NORTHEAST INDIANA

CITY           SKY/WX    TMP DP  RH WIND       PRES   REMARKS
FORT WAYNE     LGT RAIN  76  72  87 NW7       29.90S
KENDALLVILLE + PTSUNNY   82  71  68 NE3       29.90F

$$

INZ028-029-035-036-043>045-051>053-272100-
WEST CENTRAL INDIANA

CITY           SKY/WX    TMP DP  RH WIND       PRES   REMARKS
GREENCASTLE +  CLOUDY    79  70  73 W6        29.91F
LAFAYETTE      CLOUDY    82  74  76 NW6       29.88F
TERRE HAUTE    CLOUDY    81  71  71 W10       29.91F

$$

INZ030>032-037>040-046>048-054>057-064-065-272100-
CENTRAL INDIANA

CITY           SKY/WX    TMP DP  RH WIND       PRES   REMARKS
ANDERSON       PTSUNNY   81  72  74 MISG      29.91
COLUMBUS       MOSUNNY   82  68  61 W12       29.92F
GREENWOOD *+   CLOUDY   N/A N/A N/A W8        29.92F
INDIANAPOLIS   PTSUNNY   78  71  79 W13       29.91F
-EAGLE CREEK   CLOUDY    78  72  81 W8        29.90S
KOKOMO +       MOSUNNY   81  73  76 N10       29.90F
MT COMFORT *+  CLOUDY    77  73  88 NW5       29.91F
SHELBYVILLE    CLOUDY    81  71  71 SW12      29.90F

$$

INZ033-034-041-042-049-050-058-059-272100-
EAST CENTRAL INDIANA

CITY           SKY/WX    TMP DP  RH WIND       PRES   REMARKS
MUNCIE         CLOUDY    82  72  71 N6        29.90F
RICHMOND +     LGT RAIN  73  73 100 W9        29.93F

$$

INZ060-061-067>069-081>083-085>088-272100-
SOUTHWEST INDIANA

CITY           SKY/WX    TMP DP  RH WIND       PRES   REMARKS
EVANSVILLE     CLOUDY    82  74  76 W3        29.93F
HUNTINGBURG *+ PTSUNNY   82  75  79 W6        29.93F

$$

INZ062-063-066-070>080-084-089>092-272100-
SOUTH CENTRAL AND SOUTHEAST INDIANA

CITY           SKY/WX    TMP DP  RH WIND       PRES   REMARKS
BLOOMINGTON    CLOUDY    82  70  66 W9        29.92F
MADISON *+     PTSUNNY   82  70  65 W6        29.94F

$$





USA.gov is the U.S. government's official web portal to all federal, state and local government web resources and services.